Terug naar catalogus

THORAD DELTA 1 DEB

ActiefLEO
NORAD 9986·DEBRIS·🇺🇸 United States

Gelanceerd Nov 15, 1974 vanaf Vandenberg Space Force Base

Loading…

Volgende Passages (komende 24 uur)

TLE

VersSource: Space-Track

Epoch: Sep 14, 2026, 09:19 UTC

1 09986U 74089ED  26257.38875714 -.00004787  00000-0 -47277-2 0  9992
2 09986 103.2577 222.0441 0368745 303.3734  53.2605 13.51470606443779

Volg THORAD DELTA 1 DEB in realtime met AllMySat

Download on the App Store